Wind_Speed
60 61 61 61 61 61 61 61 61 61 62 62 62 62 61 61 60 59 59 59 59 60 60 60 61 61 63 64 65 66 67 68 70 73 76 75 73 72 72 72 72 71 70 69 68 68 67 67 67 66 66 65 64 63 63 62 62 62 62 62 63 62 61 60 60 59 59 60 60 61 61 61 62 62 62 61 61 60 60 59 58 57 57 57 57 56 55 54
61 62 62 62 62 62 62 62 62 63 63 63 64 64 64 63 62 62 61 61 60 60 61 61 61 61 62 63 64 64 66 67 69 71 71 71 73 75 75 74 74 73 70 70 69 69 68 68 68 67 67 66 65 65 64 63 63 63 63 64 65 63 61 61 60 59 60 60 60 61 61 61 61 61 61 61 61 60 60 60 59 59 58 58 58 57 56 54
62 63 63 63 63 63 63 63 63 64 64 64 65 65 65 65 65 64 63 63 62 62 62 62 61 61 62 62 62 63 65 66 69 70 68 67 71 74 76 76 75 73 71 70 70 70 70 69 69 69 68 67 66 66 65 65 65 65 65 66 66 63 62 61 60 60 60 60 60 60 61 61 61 61 61 61 61 60 60 60 60 60 59 59 59 57 56 55
62 63 64 65 65 65 65 65 65 64 64 65 65 66 66 66 66 66 65 65 64 63 63 63 62 63 62 62 62 62 64 65 67 68 66 66 68 71 74 76 77 75 72 72 72 71 71 71 71 70 69 68 67 67 66 66 66 66 67 68 66 64 62 61 60 60 61 61 61 61 61 61 61 61 61 61 61 60 60 60 60 60 60 59 58 57 55 54
62 63 64 65 66 66 66 66 65 65 64 64 64 65 66 66 66 66 66 66 65 65 65 64 63 64 63 63 62 62 63 64 66 66 65 65 67 69 70 73 76 76 75 73 73 73 72 72 72 71 70 69 68 68 67 67 67 68 69 68 66 64 62 62 61 61 61 61 61 61 61 61 61 61 61 61 60 60 60 59 60 60 59 58 57 56 55 54
64 64 64 65 66 66 67 66 66 65 64 63 63 63 64 65 66 66 66 66 66 66 66 65 65 65 64 64 63 63 63 64 65 65 64 64 66 68 69 70 72 75 76 76 74 74 73 73 72 72 72 71 70 69 68 68 68 69 70 68 66 64 63 62 62 62 62 62 61 61 61 61 61 61 61 61 60 60 59 60 60 59 58 57 55 55 54 54
67 66 66 65 66 66 67 67 66 65 64 63 62 62 62 63 64 65 65 65 65 65 66 66 66 66 65 65 64 64 64 64 65 64 64 64 64 66 68 68 69 71 74 77 77 76 74 74 73 73 73 72 71 70 70 69 70 70 70 68 66 64 63 63 63 62 62 62 62 62 62 62 62 61 61 61 60 59 59 60 60 58 57 56 55 54 54 53
70 69 68 68 67 67 67 67 67 66 66 64 63 63 62 61 62 63 63 63 63 63 64 64 65 65 66 66 66 65 65 66 64 63 63 63 64 65 66 68 68 68 70 74 77 77 76 75 74 74 73 73 72 71 71 71 71 71 71 69 66 65 64 64 64 63 63 62 62 62 62 62 62 62 62 61 60 60 60 60 59 57 57 56 55 54 54 53
73 72 71 70 69 68 68 68 68 68 67 66 65 65 64 63 62 62 62 62 62 61 61 62 62 63 64 65 66 66 67 67 64 64 64 63 64 64 65 66 67 67 68 70 73 76 78 77 76 75 74 74 73 71 72 72 72 72 71 69 67 65 65 65 65 64 63 63 63 63 63 63 63 63 62 61 60 60 61 60 59 58 57 56 54 54 53 52
76 75 74 74 72 71 70 70 69 69 69 69 68 67 66 64 63 62 62 62 61 60 60 59 59 60 61 63 64 66 69 68 65 65 65 64 63 63 64 65 65 66 67 68 69 72 76 78 78 76 75 74 73 72 72 72 73 73 72 69 68 66 66 66 66 65 64 64 64 64 64 64 64 64 63 61 60 61 61 61 60 58 57 56 54 54 53 51
76 77 77 76 75 74 73 72 71 71 70 70 69 68 67 65 64 62 62 62 61 60 59 58 58 58 58 60 61 64 68 68 66 66 66 64 63 63 63 64 64 65 66 67 68 69 71 74 77 77 76 75 74 73 72 73 74 73 72 70 69 67 67 68 67 67 66 66 66 65 65 65 65 65 64 62 61 62 62 61 60 58 57 56 54 54 52 50
76 77 78 78 78 77 76 74 73 73 72 71 70 69 67 66 65 63 62 62 62 61 60 59 58 57 57 57 58 63 66 66 66 67 67 66 64 63 63 64 64 64 65 66 66 67 68 69 72 75 77 77 76 74 73 73 73 73 72 70 69 69 69 69 68 68 68 67 67 66 67 67 67 66 64 62 63 63 63 62 60 59 57 56 55 54 52 50
79 78 78 79 80 79 79 78 76 75 74 73 71 69 68 67 66 65 63 63 63 62 61 60 59 59 57 56 58 61 62 63 65 67 69 68 66 65 65 64 64 64 64 64 65 65 66 67 68 70 73 76 76 75 74 74 74 74 73 71 69 69 69 69 69 69 68 68 67 67 68 67 67 66 64 63 63 63 63 61 60 59 58 56 55 54 52 51
80 80 80 80 80 81 81 80 79 78 77 75 73 71 70 68 67 66 65 64 64 64 63 62 61 60 58 57 60 59 58 60 63 65 68 70 68 67 66 65 65 64 64 63 63 63 64 66 66 66 69 71 74 76 76 75 75 74 73 72 70 70 70 69 69 69 68 68 66 67 68 67 66 65 63 62 62 63 62 60 59 59 58 56 55 54 52 51
78 81 82 81 81 81 82 82 81 81 79 77 75 74 72 70 68 68 66 65 65 65 65 64 62 61 59 60 60 58 56 59 62 64 66 69 70 68 67 66 65 64 63 62 62 62 63 64 64 65 65 67 69 73 75 76 77 76 75 73 71 71 71 70 70 69 68 67 66 68 68 66 65 64 62 61 61 62 60 59 58 58 57 55 54 53 51 50
76 79 81 83 82 82 82 82 82 82 81 80 78 76 74 72 70 69 67 65 64 65 65 64 64 62 60 61 61 58 57 58 60 61 63 66 70 70 69 67 65 64 63 62 62 62 62 62 62 62 63 64 65 68 71 74 76 77 77 75 72 72 71 71 71 69 68 67 67 69 67 65 65 63 61 61 61 61 59 58 57 56 55 54 53 51 50 50
74 76 79 82 83 83 83 82 82 82 82 82 80 78 76 75 73 71 69 66 65 65 65 65 64 63 62 63 63 60 59 58 58 58 60 64 68 71 70 68 66 65 64 63 62 61 61 61 60 61 62 63 64 65 66 68 71 74 76 75 74 74 72 72 72 69 68 68 68 69 67 66 65 63 62 62 61 60 58 57 56 56 55 53 52 50 49 49
73 73 75 78 82 84 84 83 83 82 82 82 81 80 79 77 75 73 70 68 66 64 64 64 64 64 64 64 64 62 60 59 57 57 58 62 66 70 71 69 67 66 65 64 63 62 61 60 60 60 61 61 62 62 63 65 66 70 73 74 75 75 74 74 72 70 69 69 69 69 67 67 66 64 63 62 61 59 57 56 56 55 54 53 52 50 49 48
71 71 72 75 78 81 83 83 83 82 82 82 81 81 80 79 77 75 72 70 67 65 65 65 65 65 65 65 64 63 62 60 57 56 57 60 64 69 70 70 69 67 66 64 63 62 61 60 60 59 59 59 60 61 62 63 64 66 69 71 73 75 75 75 73 72 71 71 70 69 68 68 67 66 64 63 61 59 57 56 56 55 54 53 52 51 49 47
69 70 70 72 74 77 80 82 83 82 82 81 81 81 81 80 79 77 74 72 70 68 66 66 66 66 66 65 64 63 62 60 57 56 56 58 62 67 70 70 70 68 67 65 63 62 61 60 59 58 59 59 60 62 62 61 63 65 67 68 70 72 74 74 73 73 73 73 72 71 70 70 69 67 65 64 62 59 58 58 57 56 54 53 53 51 49 48
67 68 68 69 71 73 76 79 81 81 81 80 79 80 80 80 79 78 77 75 73 71 68 67 66 66 66 66 65 63 62 60 58 55 55 56 59 64 68 69 69 68 67 66 64 63 62 60 59 59 59 60 61 62 61 62 63 64 65 66 67 69 70 70 71 72 73 74 73 73 72 72 71 69 66 65 62 60 60 59 58 56 54 54 54 52 51 50
64 66 67 67 68 70 72 74 76 78 78 78 78 78 79 79 79 78 78 77 75 73 71 68 67 67 68 67 66 64 62 61 59 56 54 54 55 60 65 68 69 69 68 66 65 64 62 60 59 59 60 61 61 61 61 61 61 62 63 63 65 67 65 65 68 70 71 73 73 73 73 73 73 71 68 65 63 62 62 61 59 57 56 56 55 54 53 51
61 63 64 64 65 66 68 70 72 73 75 75 76 76 76 77 77 78 78 77 76 74 72 70 69 69 70 69 67 64 62 61 59 56 54 54 54 57 63 67 68 69 68 67 66 64 62 61 60 60 62 62 61 61 61 61 61 61 61 62 63 63 62 63 65 66 69 71 71 72 72 72 72 72 69 65 64 64 63 62 61 59 59 58 57 56 54 53
57 59 61 62 63 64 65 66 68 70 71 72 73 74 74 75 75 75 76 76 76 75 74 73 72 71 71 70 67 64 62 61 59 56 54 53 53 54 60 67 69 69 69 68 67 65 64 63 62 62 63 63 62 62 62 61 61 61 61 62 62 61 61 61 61 63 66 68 69 70 70 71 72 72 69 65 64 64 64 63 62 61 61 61 60 58 56 55
53 55 57 59 60 61 63 64 65 67 67 68 70 71 71 72 72 72 73 74 74 75 75 75 74 73 73 70 67 65 63 61 59 57 55 54 53 53 57 64 69 69 69 69 68 68 66 64 64 64 63 63 64 63 62 61 61 61 61 62 61 61 61 59 59 62 64 65 66 67 68 70 71 71 68 65 65 65 65 64 63 63 63 63 62 60 58 57
50 52 54 56 58 59 60 62 63 63 64 65 66 68 69 69 70 70 71 72 73 74 75 75 76 76 75 71 69 68 66 63 61 59 57 56 55 54 56 61 67 70 70 69 69 69 67 65 66 65 64 64 64 62 61 61 61 61 61 62 62 61 60 58 59 61 62 63 63 63 65 67 69 70 67 65 65 66 65 65 63 63 64 64 63 61 59 58
48 49 51 53 55 57 58 59 60 60 61 62 63 65 66 66 67 68 69 71 72 73 75 76 77 78 76 74 72 71 68 66 64 61 59 58 56 56 56 58 64 68 69 70 70 68 65 65 66 65 65 65 63 62 61 61 61 60 60 61 62 61 60 59 59 60 61 60 59 61 62 64 67 68 66 65 65 66 66 64 63 63 64 64 63 61 59 58
46 47 48 51 53 54 56 57 57 58 58 59 60 61 62 63 64 65 67 69 70 72 74 76 78 79 78 76 75 73 70 68 67 63 62 60 58 58 57 57 60 66 69 70 69 67 65 66 65 65 65 64 63 63 62 62 62 60 60 61 62 61 61 60 60 60 59 57 58 59 59 62 65 66 64 63 64 65 65 64 63 63 64 64 62 61 59 57
44 45 46 48 50 52 53 54 55 56 56 57 58 58 59 60 61 62 64 65 67 70 73 76 78 80 79 77 76 74 73 72 69 65 64 61 60 59 58 56 58 64 69 71 70 67 66 66 66 66 65 64 65 64 64 64 62 60 62 63 62 61 61 61 60 60 58 57 57 57 57 60 63 64 62 62 63 63 63 62 62 62 63 63 61 60 58 57
42 43 44 46 48 50 51 52 53 53 53 55 55 56 57 57 58 60 60 61 63 67 70 73 76 78 78 77 76 75 75 73 69 67 64 62 61 60 59 58 59 62 68 71 70 67 67 67 66 65 64 64 65 64 63 63 61 61 62 63 62 61 61 61 60 60 57 57 56 55 56 58 60 62 60 59 60 60 60 61 61 61 62 61 60 59 58 56
41 41 42 44 46 48 49 50 51 51 52 53 53 54 55 56 57 57 57 59 62 64 66 69 72 75 76 76 76 77 76 73 70 68 65 62 61 60 59 59 59 60 64 69 68 67 67 66 63 62 62 63 63 61 61 60 60 60 61 61 61 61 62 61 61 59 56 56 55 53 55 58 60 60 58 56 57 58 59 59 59 60 60 60 59 58 57 55
39 39 40 42 43 45 47 48 49 50 50 51 52 53 53 54 54 53 55 59 60 60 63 65 68 72 74 76 77 77 75 72 70 68 65 63 62 60 59 58 57 57 60 64 66 67 67 65 62 61 61 61 61 59 59 58 59 59 59 59 59 60 61 61 60 57 55 55 54 53 56 58 58 57 55 54 55 56 57 57 58 59 58 58 58 57 56 54
38 38 38 39 40 42 44 46 48 49 49 50 50 51 52 52 51 52 56 58 57 57 59 61 64 68 71 74 76 76 74 72 71 69 67 65 64 62 61 59 57 57 58 62 65 67 67 64 62 61 61 61 59 58 57 57 57 57 57 57 58 59 59 58 56 55 56 56 53 53 56 57 56 55 54 54 54 55 55 55 56 56 56 57 57 57 56 55
36 36 37 37 37 39 41 43 45 47 48 48 48 50 50 49 50 53 55 56 55 55 56 58 60 64 67 71 73 73 73 71 70 69 68 66 64 63 61 60 59 58 58 61 65 67 66 64 62 61 61 60 59 59 58 58 58 58 57 57 57 57 57 56 55 55 56 55 53 55 56 55 55 54 53 53 53 53 53 54 55 55 55 57 57 57 56 56
36 35 35 35 35 36 38 39 41 43 45 46 47 48 48 48 52 54 54 54 54 53 55 56 58 60 63 66 69 70 70 69 68 68 67 65 64 62 60 60 59 58 58 59 62 65 66 66 64 64 63 62 62 61 60 60 60 58 57 56 56 56 56 56 56 56 55 54 54 56 56 55 54 53 53 53 52 53 53 53 54 54 56 57 58 58 57 57
36 35 34 34 35 35 36 36 37 40 42 44 45 46 47 49 52 51 51 53 53 53 54 55 56 57 59 61 63 64 65 66 66 66 65 63 62 62 61 60 59 58 57 57 59 63 66 66 65 65 65 65 65 64 63 62 60 58 56 54 53 53 52 54 56 56 56 56 57 57 55 54 54 53 53 53 52 53 53 53 54 55 56 58 58 58 58 57
35 35 34 35 36 36 36 35 36 37 39 41 43 45 47 49 49 49 50 52 52 53 53 53 53 54 55 56 57 59 61 62 63 63 63 62 61 60 59 60 59 59 58 58 59 62 65 65 65 66 66 66 66 65 64 62 60 58 54 51 51 52 51 54 55 55 56 58 56 55 54 53 54 53 53 52 52 52 52 53 54 55 57 58 58 58 57 56
35 35 36 36 37 37 36 35 36 37 38 39 40 42 45 46 46 48 50 51 51 52 52 53 53 53 53 53 53 55 57 58 59 60 60 60 59 58 58 58 58 59 59 58 59 62 64 64 65 66 65 65 65 64 62 60 59 57 52 50 52 53 52 53 54 54 56 57 54 53 54 53 54 53 52 52 52 52 53 53 54 55 56 57 57 57 57 56
36 37 38 38 38 38 37 37 37 38 38 38 39 40 41 42 44 47 49 50 50 51 51 52 52 51 51 51 51 52 53 55 56 57 57 57 56 57 58 58 58 58 58 58 60 61 62 63 64 64 64 64 64 62 60 59 58 55 52 51 52 52 52 53 52 53 56 56 53 54 54 54 54 53 52 52 53 53 53 54 55 56 56 57 58 57 57 56
37 37 38 38 38 38 38 39 39 39 39 39 40 41 41 42 43 45 47 49 49 49 50 50 50 51 51 50 50 51 51 53 54 55 55 55 56 57 57 57 58 58 58 58 59 60 61 62 62 62 63 63 62 60 58 58 56 53 51 51 50 49 50 50 50 53 55 54 53 53 53 53 54 53 52 53 53 54 54 55 56 56 56 57 58 58 57 57
35 36 37 38 39 39 40 41 42 42 42 42 43 43 42 42 43 44 45 47 47 48 49 49 50 51 50 49 49 50 51 51 52 54 54 55 56 56 56 56 58 58 58 58 59 60 61 61 61 62 62 60 58 57 57 57 55 52 51 50 49 49 49 48 49 51 52 51 51 51 51 52 54 54 52 53 53 54 54 55 56 55 55 57 58 58 58 57
33 34 35 37 38 39 41 42 43 43 44 44 44 44 43 44 45 45 46 46 46 47 48 49 49 50 49 48 48 49 50 50 51 53 54 55 56 56 56 57 57 57 57 57 58 59 60 61 62 62 60 58 57 57 57 56 54 51 51 50 50 50 50 49 50 51 51 50 50 51 51 53 54 53 52 53 53 54 54 55 56 55 55 57 57 58 58 58
30 31 33 34 36 37 39 40 41 42 43 44 45 45 46 47 47 48 48 47 46 46 46 46 47 47 46 47 48 49 50 51 52 54 55 56 56 56 56 57 57 57 57 57 57 57 58 61 62 61 60 59 59 57 56 55 53 51 50 49 50 50 50 50 52 53 52 50 50 52 52 53 54 54 53 54 54 54 55 55 56 56 56 56 57 58 59 59
27 28 30 32 34 36 38 40 41 43 44 45 46 47 48 49 50 51 50 48 46 45 43 43 44 44 44 45 47 48 50 51 52 53 53 53 53 54 55 55 55 56 56 56 56 56 57 60 61 60 60 59 56 54 53 52 51 49 49 50 50 51 51 52 53 53 51 49 50 52 52 53 55 54 53 54 54 55 56 56 56 56 56 57 58 59 59 59
24 25 26 28 31 34 36 39 41 44 46 48 49 50 51 52 52 51 50 47 45 43 42 41 40 41 41 42 43 45 48 49 50 51 51 51 51 52 53 53 53 54 55 55 54 55 57 58 58 57 57 56 53 51 50 50 49 48 49 50 51 52 52 53 53 52 50 50 53 53 53 54 54 53 53 53 54 55 56 56 57 57 57 58 59 60 60 60
21 23 24 25 28 31 33 36 38 41 43 46 48 50 51 51 50 49 47 45 44 43 41 40 39 39 39 39 40 42 45 47 49 50 50 49 50 50 50 51 52 53 53 53 53 55 55 55 55 55 55 54 53 52 52 52 51 51 51 50 51 52 52 53 53 53 52 53 54 54 54 54 54 54 54 54 54 55 56 56 57 57 58 59 60 60 60 60
18 20 22 24 26 28 31 33 35 38 39 42 44 46 48 48 48 46 45 44 43 43 42 40 39 38 37 38 38 40 42 45 46 47 46 47 48 48 48 49 50 52 52 52 52 53 53 52 52 53 53 53 53 54 54 54 54 54 53 53 53 54 54 54 55 54 53 53 55 55 55 55 55 55 55 56 56 55 56 56 57 57 58 59 60 61 61 61
17 19 21 24 26 28 30 33 36 38 40 41 43 44 46 48 48 47 45 44 43 42 42 41 40 39 39 39 39 39 41 43 43 43 43 44 45 45 46 47 48 49 49 49 50 50 50 50 50 50 51 51 51 51 51 51 52 53 54 54 55 55 56 56 56 56 54 54 56 57 57 56 56 56 56 57 57 56 56 56 57 58 58 59 61 62 62 61
20 22 24 26 28 30 32 34 36 38 40 41 42 43 44 46 46 46 45 44 43 42 41 41 41 40 40 40 39 39 40 40 40 40 41 42 42 43 44 45 46 46 47 47 48 48 48 48 48 48 49 50 50 50 50 51 51 52 53 54 54 55 56 56 56 56 56 56 57 58 58 57 57 57 57 57 57 57 57 57 57 57 57 58 60 62 62 62
24 27 27 28 29 30 31 33 35 37 39 40 41 41 42 43 43 44 44 44 44 43 43 42 41 41 40 39 39 40 41 41 42 41 41 40 40 41 42 43 43 44 44 45 46 46 46 46 47 47 49 50 50 50 51 52 52 53 54 55 55 56 56 56 57 57 57 58 58 58 58 58 58 58 58 57 57 57 57 57 57 57 57 59 61 62 62 62
27 29 30 29 30 30 31 33 34 35 36 37 38 39 40 41 42 42 43 44 44 44 44 43 43 42 41 41 42 42 43 43 43 43 42 41 40 40 41 41 42 43 43 44 45 45 46 46 47 48 49 50 50 52 53 54 54 55 56 56 56 56 56 56 56 57 57 58 57 57 57 57 57 57 57 57 58 58 58 58 58 58 58 59 61 62 62 63
31 33 35 36 36 35 36 37 38 38 36 34 34 35 33 33 35 38 41 43 43 43 43 43 44 43 42 42 42 42 43 43 42 42 41 41 40 41 41 42 42 43 44 46 46 47 47 48 49 50 51 51 52 53 55 56 56 56 56 56 56 56 56 56 56 56 57 57 56 56 56 56 56 56 56 57 57 58 58 59 59 58 59 60 61 62 63 64
Wind_Direction
250 249 249 248 248 248 247 246 245 244 243 242 242 241 241 241 241 241 242 243 245 245 245 245 244 243 242 242 241 241 240 240 239 238 237 236 236 237 237 237 236 236 235 236 236 237 237 238 238 238 238 237 237 238 238 239 239 240 240 241 241 241 241 242 244 245 247 248 249 251 252 253 255 256 258 259 260 261 262 264 265 266 267 268 269 270 272 274
250 249 248 248 248 248 248 248 247 246 245 245 244 243 242 241 240 240 240 241 242 243 244 245 245 244 244 243 242 241 241 240 240 239 237 236 236 236 236 236 236 236 235 236 236 237 237 237 238 238 238 238 238 238 238 239 239 240 241 241 241 241 242 242 244 245 246 247 249 250 252 253 255 256 257 259 260 261 262 264 265 266 267 268 269 270 272 274
250 249 248 248 248 248 248 248 248 248 247 247 246 245 244 243 242 240 240 239 239 240 242 243 244 244 244 244 243 242 242 241 241 239 237 236 236 236 236 236 236 236 235 235 236 236 237 237 238 238 238 238 238 238 238 239 239 240 241 242 242 242 242 243 244 245 246 247 249 250 252 253 255 256 257 259 260 261 262 263 265 265 266 267 269 271 273 275
251 250 249 248 247 247 247 247 247 247 247 247 247 247 246 245 244 242 241 240 239 239 239 240 242 243 244 244 244 243 243 242 242 240 237 237 237 236 236 236 236 235 235 235 236 236 236 237 238 238 238 238 238 239 239 239 240 240 241 242 242 243 243 244 244 246 247 248 249 250 252 253 255 256 257 258 260 261 262 263 264 265 266 267 269 271 273 274
252 251 249 248 247 247 246 246 246 246 246 246 247 247 246 246 245 244 243 241 240 239 238 238 239 241 242 243 244 244 243 243 243 241 238 237 237 237 236 236 235 235 234 234 235 236 236 237 238 238 238 238 238 239 239 240 240 241 242 242 243 243 244 245 245 246 247 249 250 251 252 253 255 256 257 258 260 261 262 263 264 265 266 267 269 271 272 273
252 252 251 249 248 247 246 245 245 245 245 245 245 246 246 246 245 244 244 243 241 240 239 238 237 238 239 241 242 243 243 243 243 242 239 238 238 237 236 236 235 235 234 234 234 235 235 236 237 238 238 238 238 239 239 240 241 242 243 244 244 244 245 245 246 247 248 249 250 252 253 254 255 256 257 259 260 261 262 263 264 265 267 268 269 270 272 273
251 251 251 250 249 247 246 245 245 245 244 245 245 245 246 245 245 244 243 243 242 241 240 239 237 237 237 238 239 241 242 242 243 242 241 239 239 238 237 236 235 235 234 234 234 234 235 235 237 238 238 238 239 239 240 241 241 242 243 244 244 245 245 246 247 248 249 250 251 252 253 254 255 257 257 258 259 261 262 263 264 266 267 268 269 271 272 273
250 250 250 249 249 248 247 245 245 244 244 244 245 245 246 246 245 244 243 242 242 241 241 240 238 237 236 236 237 238 240 241 242 242 242 240 239 239 238 237 235 235 235 234 234 234 234 235 236 237 238 238 239 239 240 241 242 243 244 244 244 245 246 247 247 248 249 250 251 252 253 254 255 257 257 258 260 261 262 263 265 266 267 268 270 271 272 273
250 249 249 248 248 247 247 246 244 244 244 244 245 245 246 246 246 245 243 241 241 240 240 239 239 238 237 236 236 236 238 239 240 241 241 240 240 239 239 238 236 235 235 235 234 234 234 234 235 236 237 238 238 239 240 241 242 243 244 244 245 245 246 247 248 248 249 250 251 252 254 255 256 257 257 258 260 261 263 264 265 266 267 269 270 271 272 273
249 248 248 247 247 246 246 245 245 244 244 245 245 245 245 245 246 245 243 241 240 239 239 238 238 238 238 237 236 235 236 237 237 239 240 240 240 239 239 239 237 236 235 235 234 234 234 234 235 235 236 237 238 238 239 241 242 243 244 244 245 245 246 247 248 249 249 250 251 252 254 255 256 257 257 259 260 262 263 264 265 266 267 269 270 271 272 273
249 248 247 246 246 245 245 245 245 245 245 245 245 245 245 245 245 245 243 241 239 238 237 237 237 237 237 237 237 236 236 235 235 237 238 238 239 239 239 239 238 236 236 235 235 234 234 234 235 235 236 237 238 238 239 240 242 243 244 244 245 245 246 247 248 248 249 250 251 252 253 255 256 257 258 259 260 261 262 263 265 266 268 269 269 270 271 272
249 247 246 245 245 245 244 244 244 244 245 245 245 244 244 244 244 243 242 241 239 237 236 236 236 236 236 236 237 237 236 234 233 235 236 237 237 237 238 238 238 237 236 235 235 235 234 234 235 235 236 237 237 238 239 240 242 243 243 244 244 245 245 246 247 248 249 250 251 252 253 254 255 257 258 258 260 261 262 263 265 266 267 268 268 269 270 270
248 247 246 245 244 244 244 243 243 243 244 244 244 244 243 243 243 242 241 240 238 236 235 235 235 235 235 235 236 237 237 236 233 233 234 235 235 235 236 236 237 237 237 236 235 235 235 235 235 235 236 236 237 238 239 240 241 242 243 243 243 244 245 246 247 248 249 250 251 252 253 253 255 256 257 258 259 261 262 263 264 265 266 266 267 268 268 269
248 246 246 245 244 243 243 243 242 242 243 243 243 243 243 242 242 242 241 239 237 236 235 234 234 234 234 235 236 236 238 237 234 233 233 234 233 234 234 235 236 237 237 237 236 236 235 235 235 235 235 236 237 237 238 239 241 242 243 243 243 244 245 246 247 247 248 249 250 252 252 253 254 256 257 258 259 260 262 263 263 264 265 265 266 267 267 268
248 246 245 244 243 243 242 242 242 242 242 242 242 242 242 242 241 241 241 239 238 236 235 234 234 234 233 235 236 236 238 238 235 234 233 233 232 232 233 234 235 236 237 237 237 236 236 236 236 235 236 236 236 237 238 238 240 241 242 242 242 244 245 246 246 247 248 249 250 251 252 252 253 255 256 257 258 259 261 262 262 263 264 265 265 266 267 267
250 246 244 243 243 242 242 241 241 241 241 241 241 241 242 241 241 241 241 240 238 237 236 235 235 234 234 236 237 237 238 238 237 235 234 233 232 231 232 233 233 234 235 236 237 236 236 236 236 236 236 236 236 237 237 238 239 241 242 242 243 244 244 245 246 247 248 248 249 250 252 252 253 254 255 256 257 258 260 261 262 263 264 264 265 265 266 267
251 247 245 243 242 241 241 241 241 240 240 240 240 240 241 241 241 241 240 240 239 238 236 235 235 234 234 236 238 237 238 238 238 236 235 233 232 231 231 231 232 233 233 234 235 236 236 236 236 236 236 236 236 236 237 238 238 240 241 242 242 243 244 244 245 246 247 248 249 250 252 252 253 253 254 255 256 258 259 261 262 262 263 263 264 265 265 266
251 248 245 243 242 241 240 240 240 240 240 239 239 239 240 240 240 240 240 240 239 238 237 236 235 235 234 236 238 237 238 238 238 237 235 234 232 230 230 230 231 231 232 232 234 235 235 236 236 236 237 237 237 237 237 237 237 239 240 240 240 241 242 243 244 245 246 247 249 250 251 252 253 253 254 255 256 257 259 260 260 261 262 262 263 263 264 265
250 248 245 243 241 240 240 240 240 240 239 239 239 239 239 239 239 239 239 239 239 239 238 236 235 235 234 235 237 237 237 238 238 237 235 234 232 230 229 229 230 230 231 231 232 233 234 235 235 236 236 237 237 236 236 236 236 237 238 238 238 239 240 241 243 244 245 247 248 249 251 252 252 253 254 255 256 257 257 258 259 260 261 262 262 263 263 263
249 247 244 242 240 239 239 239 239 239 239 239 239 238 238 238 238 238 238 238 238 238 237 236 235 235 235 235 236 237 237 237 238 238 236 235 232 230 229 228 229 229 230 230 230 231 232 233 234 234 235 235 235 235 235 235 235 236 237 238 238 239 240 241 242 243 244 246 247 248 250 251 252 253 254 255 255 256 257 257 258 259 260 261 262 262 262 261
248 246 244 242 240 238 238 238 238 238 239 239 239 238 238 238 238 238 238 237 236 236 236 236 235 235 236 236 236 236 237 237 237 237 237 236 233 231 229 229 229 229 230 230 230 230 231 232 232 232 233 234 235 236 236 236 236 237 237 238 238 239 239 240 242 243 245 246 247 248 249 251 252 253 253 254 255 256 256 257 258 259 260 260 261 261 261 262
247 245 243 241 239 238 237 237 237 238 238 238 238 238 238 238 238 237 237 237 236 236 235 235 235 235 235 236 235 235 235 236 236 236 236 236 234 231 229 229 229 229 230 230 230 231 231 231 232 232 232 233 234 236 236 236 237 237 238 239 239 239 240 240 241 242 244 245 246 248 249 251 252 253 253 254 255 256 256 257 258 259 259 260 261 261 262 263
246 244 242 240 239 237 236 236 236 236 237 237 238 238 238 238 238 237 237 237 236 235 235 235 235 235 235 236 236 235 235 236 236 236 236 236 234 231 229 228 228 229 229 230 230 230 231 231 231 232 232 232 232 234 235 236 236 237 239 239 240 241 241 241 241 242 243 244 245 247 249 250 251 252 252 253 254 255 256 257 258 259 259 260 261 261 263 264
244 243 241 239 238 236 235 235 234 235 235 236 237 238 238 238 238 237 237 236 236 235 234 234 234 234 235 236 236 235 235 236 236 236 236 236 235 233 230 227 227 228 229 229 230 230 230 230 231 232 232 232 231 232 233 235 236 237 238 239 240 241 241 241 241 242 243 244 245 246 248 249 250 251 252 251 252 254 255 256 258 258 259 260 261 261 263 264
243 241 240 238 236 235 234 234 233 233 233 234 235 236 237 237 237 237 237 236 235 235 234 233 234 234 234 235 236 236 236 236 237 237 237 237 236 234 231 228 227 228 228 229 230 230 230 230 231 233 234 234 233 233 233 234 236 237 238 239 241 241 241 241 240 241 242 243 245 246 247 248 249 250 251 251 251 252 254 255 256 258 259 259 260 261 262 263
242 240 238 237 235 233 232 232 232 232 232 233 233 234 235 235 235 235 235 235 234 233 233 232 233 233 233 234 235 235 235 235 235 235 236 236 235 234 233 229 227 227 228 229 230 230 231 232 233 234 235 236 235 234 234 234 235 236 238 239 240 241 242 241 240 241 241 242 244 245 246 248 249 250 251 250 250 251 252 253 255 256 257 258 260 261 261 262
240 238 237 235 233 232 231 230 230 231 231 231 231 232 233 233 233 232 233 232 232 231 231 231 231 232 233 233 233 234 234 234 235 234 235 235 234 233 232 231 228 227 227 229 229 230 231 232 234 235 236 236 236 236 235 234 234 235 237 239 240 241 241 241 240 241 242 243 244 245 246 248 249 250 250 249 249 250 251 252 253 254 256 257 259 260 260 261
239 237 236 234 232 231 230 229 229 229 229 229 230 230 230 230 230 230 230 230 229 229 229 229 229 230 231 231 232 233 234 234 234 234 234 234 233 232 231 230 229 227 227 228 229 229 229 231 233 234 235 236 236 236 235 234 233 232 234 237 239 240 241 241 240 241 243 243 244 245 246 247 248 249 250 249 249 250 250 251 252 253 254 256 257 258 259 260
237 236 235 233 231 229 229 228 228 228 228 228 228 228 228 229 228 228 228 228 228 228 228 227 228 229 230 230 232 232 233 234 234 233 233 233 232 232 231 230 229 227 227 228 228 227 228 230 231 232 233 235 236 236 236 235 233 232 233 235 236 238 240 241 241 242 243 243 244 245 246 247 248 250 250 250 250 250 250 250 251 252 253 254 256 257 258 259
236 235 234 232 230 229 228 227 228 227 227 227 228 228 227 227 227 227 227 227 227 227 227 227 227 228 228 229 230 232 233 234 234 234 234 233 233 233 231 230 229 227 226 227 227 227 228 230 231 232 234 235 237 237 238 238 236 234 234 235 236 237 239 240 241 242 242 243 245 245 246 247 249 250 250 250 250 250 250 250 250 251 252 253 255 256 257 258
235 234 233 231 229 228 227 226 226 226 227 227 227 227 226 226 225 225 225 226 226 226 226 226 226 227 228 228 229 231 232 233 233 234 233 233 234 234 233 232 231 229 227 227 227 226 228 230 231 233 235 236 238 239 240 240 239 237 236 236 236 237 238 239 241 243 244 245 245 245 245 246 248 250 251 251 250 250 249 249 249 250 251 252 253 254 255 256
233 232 232 231 229 227 226 226 225 225 225 226 226 226 225 225 224 223 224 225 225 225 226 225 225 225 226 227 228 229 230 231 232 233 233 233 233 233 234 233 233 232 231 229 227 227 228 229 230 232 234 236 238 239 240 240 240 239 236 236 236 237 238 240 242 244 245 245 245 244 244 246 248 250 251 250 249 249 248 248 248 249 250 251 252 253 254 255
230 230 230 230 229 227 226 225 225 224 224 224 224 225 224 223 222 222 223 224 224 224 225 224 224 224 224 225 227 228 229 229 230 231 231 231 231 231 231 231 230 230 230 229 227 227 228 228 228 230 233 235 237 238 239 240 240 239 238 236 236 236 237 239 241 242 243 243 244 244 245 247 248 249 250 249 248 248 247 247 247 248 249 250 251 251 252 253
228 228 228 228 227 226 226 225 224 224 224 224 223 224 223 222 221 221 222 222 222 222 223 223 224 224 224 224 225 227 228 228 229 230 229 230 230 230 230 229 228 228 228 227 226 225 226 227 228 229 231 234 235 236 237 237 237 237 236 234 234 234 234 235 236 238 240 241 242 243 244 245 246 248 248 248 247 247 246 245 246 246 247 248 249 250 251 251
225 225 225 225 225 225 224 223 223 223 223 223 223 223 222 220 220 221 220 221 221 221 221 222 222 222 223 224 225 225 226 226 228 229 230 230 229 229 229 229 228 227 227 227 226 225 225 224 225 226 227 229 232 234 235 236 237 237 236 234 233 233 233 233 234 235 237 238 239 240 241 243 245 246 247 247 246 245 244 243 243 244 245 246 248 249 249 250
222 223 223 223 223 223 222 220 220 220 220 221 221 221 220 220 220 220 219 220 220 219 220 221 221 221 222 223 224 225 225 225 225 226 227 229 229 228 227 227 227 227 227 226 225 225 226 225 225 225 226 227 230 232 234 236 237 238 237 236 234 234 234 234 233 233 235 236 237 239 241 243 244 245 245 246 245 243 242 241 241 242 244 245 247 248 249 250
220 221 221 221 222 222 220 218 217 217 217 218 218 218 218 218 218 218 218 219 219 218 219 219 220 221 221 222 222 223 224 224 225 225 225 226 227 227 227 227 225 225 225 224 223 223 225 225 225 226 227 228 230 232 234 236 237 238 237 236 234 232 231 232 233 233 234 236 238 241 242 243 244 244 245 245 244 242 241 240 240 241 243 245 247 248 249 250
220 220 220 220 221 221 220 218 217 216 216 215 215 215 216 216 216 217 218 217 217 217 217 218 218 219 220 220 221 221 221 222 223 224 225 225 224 225 225 226 226 225 225 224 222 223 223 223 224 226 227 228 230 232 235 237 238 239 238 235 233 230 229 230 231 232 235 237 238 240 241 241 242 242 243 243 242 241 240 240 240 241 243 245 247 248 249 250
219 219 220 219 220 220 219 219 218 217 216 215 214 214 213 213 213 214 216 216 215 215 216 216 217 218 218 218 218 218 219 219 220 221 223 224 224 224 223 223 224 225 225 225 223 223 224 224 224 225 227 228 230 231 234 236 238 239 237 234 233 231 229 229 229 230 233 235 236 237 239 239 240 241 241 241 241 239 239 239 240 241 243 245 246 248 248 249
217 219 219 219 219 219 219 219 219 218 216 215 214 213 211 210 211 212 213 214 213 213 214 214 214 216 216 216 216 216 216 217 217 218 219 221 222 223 223 222 223 223 223 225 225 224 224 224 225 225 227 228 230 231 233 235 236 237 237 234 232 231 231 231 231 231 233 235 236 237 239 240 240 240 239 239 240 239 238 239 240 241 242 244 246 247 248 249
216 218 218 218 218 218 217 217 217 216 215 214 214 213 210 209 210 210 211 212 211 210 211 212 212 213 214 214 215 215 215 215 215 216 217 218 220 221 221 222 223 222 222 223 224 225 225 225 225 226 227 229 230 231 233 235 235 235 234 233 230 228 229 230 231 232 233 234 236 237 239 241 241 240 238 238 239 240 240 240 241 242 243 244 246 247 248 249
214 215 215 216 216 216 216 216 215 214 213 212 212 212 211 210 210 210 210 209 208 208 209 209 210 211 211 211 213 215 215 215 214 215 215 216 218 219 220 220 221 222 222 222 223 224 225 225 225 226 227 229 230 231 232 233 233 233 232 231 228 226 225 226 228 231 231 231 234 237 239 240 241 240 239 238 239 240 241 242 243 243 244 245 246 246 248 248
213 214 214 214 215 214 215 215 214 214 212 211 210 210 210 210 210 210 209 208 206 206 207 207 208 209 209 209 210 211 213 214 214 214 215 216 217 218 218 219 219 219 220 221 222 223 223 223 225 225 226 228 229 230 231 232 231 230 229 229 229 227 226 226 227 230 231 231 235 239 239 240 240 239 239 238 238 239 241 243 244 245 245 246 246 247 247 248
211 212 212 212 212 211 211 210 210 210 209 209 208 208 208 209 210 210 208 206 205 205 204 204 205 206 207 208 208 208 209 211 213 215 216 217 217 218 219 219 219 219 220 221 222 222 221 221 223 224 225 228 229 229 230 231 231 229 227 228 229 228 228 229 229 232 234 235 239 242 241 240 241 240 240 240 239 240 241 243 245 246 246 246 247 247 248 249
205 204 204 205 205 204 204 204 203 204 204 204 205 205 206 207 208 208 207 204 203 203 202 202 202 202 204 207 208 207 207 209 211 214 216 217 218 219 219 219 219 220 220 220 220 219 219 219 220 222 224 226 227 228 230 231 231 228 227 227 228 229 229 230 232 234 236 237 240 241 240 240 240 240 241 241 241 241 242 244 246 247 247 247 248 248 249 250
194 192 191 193 196 196 195 196 197 197 198 199 201 203 204 206 207 207 205 203 201 200 199 198 199 199 201 203 205 206 207 207 209 211 212 214 215 217 218 219 219 220 221 219 218 217 217 217 218 220 221 222 222 223 224 225 226 226 227 227 228 230 231 232 234 235 236 237 238 238 238 239 240 240 240 241 242 242 243 244 246 248 248 249 249 250 251 252
179 179 179 180 183 185 184 186 187 188 189 191 194 198 200 203 205 205 203 202 200 199 197 196 196 196 197 199 201 203 205 206 207 208 210 211 213 214 216 218 219 219 219 217 215 215 216 216 216 218 220 220 220 220 220 220 221 223 225 226 228 230 231 232 234 235 235 236 236 235 235 237 238 239 240 241 242 243 244 245 246 248 249 249 250 251 252 253
163 166 167 167 170 172 173 175 177 178 180 182 185 189 193 197 200 201 201 200 198 197 195 194 193 194 195 196 197 199 203 205 206 207 208 211 212 212 213 214 215 216 215 214 213 214 214 215 215 217 219 220 220 221 221 222 223 224 225 226 227 229 230 231 233 234 233 233 233 234 235 236 238 239 241 242 242 243 245 246 248 249 250 250 251 251 252 254
148 151 153 156 159 163 166 169 171 172 174 176 178 182 186 190 193 196 197 197 196 195 194 193 192 193 194 194 193 195 200 202 202 204 206 208 209 209 209 210 211 212 212 211 212 212 213 214 215 216 218 219 220 221 222 224 225 226 227 228 228 229 229 230 230 231 230 230 232 235 236 236 238 240 241 242 243 244 245 247 249 250 251 252 252 253 253 254
142 142 145 149 152 156 159 162 165 166 168 170 172 175 178 182 186 190 192 193 194 194 193 192 192 193 193 193 192 193 196 198 197 198 200 202 204 205 206 207 208 208 209 210 211 212 213 214 214 216 218 219 221 222 224 225 226 227 227 228 228 228 229 229 229 229 230 230 232 235 237 238 239 241 242 244 245 246 247 248 250 251 253 254 254 254 254 255
134 134 136 138 141 145 149 152 154 156 159 162 165 168 171 175 178 182 185 188 190 192 192 192 191 192 193 193 193 193 195 197 197 196 196 197 200 202 203 205 206 206 207 209 211 212 213 214 215 216 218 220 222 223 224 225 226 227 227 228 228 229 229 230 230 230 231 232 233 236 239 241 242 243 244 245 246 248 249 250 251 252 253 254 255 255 255 256
123 126 128 130 133 136 139 141 142 141 141 146 151 154 158 166 172 176 179 182 185 187 189 190 190 191 192 193 195 196 196 197 196 196 197 197 199 203 204 204 205 206 207 208 209 211 213 214 215 217 218 220 221 222 223 224 225 226 227 228 228 229 230 231 231 232 233 234 235 237 240 243 244 245 246 247 248 249 251 252 253 254 254 255 256 256 257 257
Height
10614 10616 10618 10620 10622 10624 10626 10628 10630 10632 10634 10636 10638 10641 10643 10645 10648 10650 10652 10655 10658 10660 10663 10666 10668 10672 10674 10676 10680 10683 10686 10688 10690 10692 10696 10708 10717 10719 10721 10723 10724 10729 10734 10739 10743 10747 10750 10754 10756 10759 10763 10766 10770 10772 10775 10778 10780 10781 10784 10784 10784 10788 10793 10796 10798 10802 10803 10804 10805 10806 10806 10808 10808 10808 10810 10811 10814 10816 10818 10820 10822 10824 10825 10826 10826 10829 10832 10834
10606 10608 10610 10612 10614 10616 10618 10620 10622 10624 10627 10629 10631 10634 10636 10638 10641 10644 10646 10649 10652 10654 10656 10659 10662 10664 10667 10670 10673 10676 10678 10681 10682 10684 10694 10704 10708 10708 10712 10714 10716 10723 10730 10734 10738 10741 10744 10747 10749 10753 10757 10760 10764 10766 10770 10772 10774 10775 10777 10777 10778 10784 10789 10792 10795 10797 10798 10798 10800 10800 10802 10802 10803 10804 10806 10807 10808 10810 10813 10815 10817 10819 10820 10821 10822 10824 10828 10830
10598 10600 10602 10604 10606 10608 10610 10612 10614 10616 10619 10621 10623 10626 10628 10630 10634 10636 10640 10642 10646 10648 10650 10652 10656 10658 10660 10663 10666 10669 10671 10674 10674 10678 10690 10698 10698 10700 10704 10707 10710 10718 10724 10728 10730 10734 10737 10740 10742 10746 10750 10754 10758 10761 10764 10766 10768 10769 10770 10770 10774 10780 10785 10788 10791 10792 10792 10794 10795 10796 10797 10798 10798 10800 10801 10802 10804 10806 10809 10811 10812 10814 10814 10816 10818 10820 10824 10826
10590 10592 10594 10596 10598 10600 10602 10604 10606 10609 10611 10613 10616 10618 10620 10623 10626 10629 10632 10636 10639 10642 10644 10646 10650 10652 10654 10657 10660 10662 10664 10666 10668 10674 10685 10690 10690 10692 10696 10700 10704 10711 10718 10721 10724 10727 10730 10734 10736 10740 10744 10749 10752 10756 10758 10760 10762 10763 10762 10764 10770 10776 10780 10784 10786 10787 10787 10788 10790 10792 10792 10793 10794 10795 10796 10798 10800 10802 10804 10806 10807 10808 10809 10812 10814 10818 10820 10820
10582 10584 10586 10588 10590 10592 10594 10596 10599 10601 10604 10606 10608 10610 10612 10615 10618 10622 10625 10628 10632 10634 10636 10640 10644 10646 10648 10651 10654 10656 10658 10660 10662 10668 10678 10682 10682 10685 10688 10692 10698 10704 10710 10714 10716 10720 10724 10727 10730 10734 10738 10742 10746 10750 10752 10754 10756 10756 10756 10760 10766 10772 10776 10779 10780 10782 10782 10784 10785 10786 10787 10788 10789 10791 10792 10794 10796 10798 10800 10801 10802 10802 10804 10808 10811 10814 10814 10814
10574 10575 10577 10580 10582 10584 10586 10588 10590 10594 10596 10598 10600 10602 10604 10607 10610 10614 10617 10620 10624 10626 10630 10634 10636 10639 10642 10645 10648 10650 10652 10654 10657 10662 10670 10674 10676 10678 10682 10686 10691 10696 10701 10706 10710 10712 10716 10720 10724 10727 10731 10736 10740 10744 10746 10748 10750 10750 10750 10756 10762 10768 10772 10774 10775 10777 10778 10779 10780 10781 10782 10784 10784 10786 10788 10790 10792 10794 10794 10795 10795 10798 10801 10804 10806 10808 10810 10810
10565 10566 10568 10570 10573 10575 10578 10580 10582 10586 10588 10590 10592 10594 10596 10600 10602 10606 10609 10612 10616 10618 10622 10626 10630 10632 10636 10638 10642 10644 10646 10648 10651 10656 10662 10666 10669 10671 10674 10679 10684 10689 10693 10698 10702 10706 10710 10714 10718 10720 10725 10730 10734 10738 10740 10742 10744 10744 10746 10752 10758 10763 10766 10768 10770 10772 10774 10774 10775 10776 10777 10778 10780 10781 10782 10784 10788 10789 10789 10788 10790 10794 10796 10798 10802 10804 10805 10806
10556 10558 10559 10562 10564 10566 10569 10572 10575 10578 10580 10582 10584 10586 10589 10592 10595 10598 10602 10605 10608 10611 10614 10618 10622 10625 10628 10632 10635 10638 10638 10641 10646 10650 10654 10659 10662 10664 10668 10672 10677 10682 10686 10690 10694 10700 10704 10708 10710 10714 10718 10722 10726 10732 10734 10736 10738 10738 10740 10748 10754 10758 10761 10763 10764 10766 10768 10769 10770 10770 10772 10774 10775 10776 10777 10780 10783 10784 10784 10784 10786 10790 10791 10794 10798 10800 10800 10801
10545 10548 10550 10552 10554 10558 10560 10563 10566 10569 10572 10574 10576 10578 10582 10585 10588 10590 10594 10597 10600 10604 10607 10611 10615 10618 10622 10624 10628 10632 10630 10635 10642 10643 10646 10652 10655 10659 10662 10665 10670 10676 10679 10683 10688 10692 10696 10700 10703 10708 10712 10715 10721 10726 10728 10730 10731 10732 10736 10744 10750 10753 10756 10757 10758 10760 10762 10764 10764 10766 10766 10768 10770 10770 10772 10776 10778 10778 10778 10779 10782 10784 10786 10790 10794 10794 10794 10796
10534 10537 10540 10542 10544 10548 10551 10554 10557 10560 10563 10566 10568 10570 10574 10578 10580 10584 10586 10590 10593 10596 10600 10604 10608 10611 10614 10618 10622 10624 10623 10630 10636 10636 10640 10646 10649 10654 10656 10658 10664 10668 10672 10676 10680 10684 10688 10693 10698 10702 10706 10710 10716 10720 10722 10724 10724 10726 10732 10739 10744 10748 10750 10750 10752 10754 10756 10758 10758 10760 10762 10762 10763 10764 10767 10772 10774 10773 10772 10773 10776 10780 10782 10786 10788 10788 10789 10792
10524 10526 10528 10531 10534 10538 10541 10544 10548 10551 10554 10556 10559 10562 10566 10570 10574 10576 10580 10583 10586 10590 10594 10597 10600 10604 10608 10611 10615 10616 10616 10624 10630 10630 10633 10638 10643 10648 10650 10652 10656 10662 10664 10668 10674 10678 10682 10688 10692 10695 10700 10704 10708 10712 10716 10717 10718 10721 10728 10734 10738 10741 10742 10742 10745 10748 10750 10752 10752 10756 10756 10756 10757 10758 10764 10768 10768 10766 10766 10768 10772 10775 10778 10780 10782 10782 10784 10786
10512 10514 10517 10520 10523 10527 10530 10534 10538 10541 10544 10547 10551 10554 10558 10562 10566 10569 10572 10576 10579 10582 10586 10590 10594 10598 10601 10606 10607 10606 10609 10617 10624 10624 10626 10632 10637 10640 10644 10646 10650 10654 10658 10662 10668 10672 10677 10681 10684 10688 10694 10697 10700 10706 10710 10711 10713 10716 10722 10727 10732 10734 10734 10736 10739 10741 10744 10746 10748 10750 10750 10750 10752 10754 10759 10762 10762 10760 10761 10764 10768 10770 10772 10774 10776 10776 10779 10782
10499 10502 10505 10508 10512 10516 10520 10524 10528 10531 10534 10538 10542 10546 10550 10554 10558 10562 10565 10568 10572 10576 10580 10584 10588 10590 10595 10598 10597 10598 10604 10610 10615 10618 10618 10624 10630 10634 10636 10640 10643 10648 10652 10657 10662 10666 10671 10674 10678 10683 10687 10690 10695 10700 10703 10706 10707 10710 10714 10720 10724 10726 10727 10730 10732 10735 10738 10740 10743 10744 10742 10744 10747 10749 10754 10756 10756 10755 10756 10760 10762 10764 10766 10768 10770 10772 10774 10776
10486 10490 10493 10497 10501 10504 10508 10513 10517 10521 10524 10528 10532 10537 10541 10546 10550 10553 10557 10560 10564 10568 10572 10576 10580 10584 10589 10590 10588 10594 10598 10600 10606 10610 10612 10617 10623 10626 10630 10634 10638 10642 10647 10652 10657 10661 10664 10668 10672 10676 10680 10684 10689 10692 10695 10699 10700 10703 10708 10712 10718 10718 10720 10724 10726 10729 10732 10734 10738 10736 10734 10740 10742 10744 10749 10751 10750 10750 10750 10754 10757 10758 10760 10762 10765 10766 10768 10770
10473 10477 10481 10485 10489 10493 10497 10502 10506 10510 10514 10519 10524 10528 10532 10537 10542 10544 10548 10553 10558 10562 10565 10570 10573 10577 10582 10580 10582 10588 10590 10593 10598 10603 10606 10611 10616 10620 10624 10629 10634 10638 10642 10647 10651 10655 10658 10662 10666 10670 10674 10678 10682 10684 10688 10692 10694 10697 10700 10706 10712 10712 10714 10718 10720 10723 10726 10729 10732 10727 10728 10734 10736 10739 10744 10745 10744 10744 10746 10749 10751 10752 10754 10757 10760 10762 10764 10765
10460 10464 10468 10472 10476 10480 10485 10490 10494 10499 10504 10509 10514 10518 10524 10528 10532 10536 10541 10546 10550 10554 10558 10563 10566 10570 10574 10573 10576 10582 10584 10586 10591 10596 10601 10604 10608 10614 10618 10624 10628 10633 10638 10641 10645 10648 10652 10656 10660 10666 10668 10672 10675 10677 10682 10685 10688 10690 10692 10699 10704 10705 10709 10711 10712 10717 10720 10722 10724 10720 10723 10729 10731 10735 10738 10738 10738 10738 10741 10744 10746 10747 10749 10751 10754 10756 10758 10760
10446 10450 10455 10460 10464 10468 10473 10478 10483 10488 10494 10498 10504 10510 10514 10519 10524 10528 10533 10538 10542 10546 10551 10556 10559 10563 10566 10566 10568 10574 10577 10580 10584 10590 10594 10598 10602 10606 10612 10618 10622 10628 10632 10635 10639 10643 10646 10651 10655 10658 10661 10665 10668 10671 10675 10678 10682 10684 10686 10693 10697 10698 10702 10703 10705 10711 10714 10716 10716 10715 10719 10722 10726 10730 10732 10732 10732 10734 10737 10739 10740 10742 10743 10746 10748 10752 10754 10755
10432 10437 10442 10446 10451 10456 10460 10466 10472 10477 10482 10488 10494 10500 10505 10510 10514 10520 10525 10530 10534 10539 10544 10548 10552 10555 10558 10558 10561 10567 10570 10573 10578 10583 10588 10591 10595 10599 10604 10610 10616 10621 10626 10629 10634 10638 10642 10646 10648 10652 10656 10660 10662 10666 10670 10672 10676 10676 10678 10684 10687 10690 10694 10695 10700 10705 10707 10708 10708 10710 10714 10716 10720 10724 10724 10726 10728 10730 10732 10733 10734 10736 10738 10740 10744 10746 10749 10750
10420 10424 10429 10434 10438 10443 10448 10454 10460 10466 10471 10478 10484 10490 10495 10500 10505 10511 10516 10522 10527 10532 10536 10540 10543 10546 10549 10551 10555 10560 10563 10567 10572 10576 10581 10584 10588 10592 10598 10604 10609 10614 10618 10623 10628 10632 10636 10639 10643 10648 10651 10654 10656 10659 10661 10665 10668 10668 10670 10674 10678 10682 10685 10689 10695 10698 10700 10702 10703 10706 10708 10709 10714 10716 10718 10720 10723 10726 10727 10727 10728 10730 10732 10735 10738 10741 10744 10746
10406 10411 10416 10420 10426 10431 10437 10442 10448 10454 10460 10467 10474 10480 10485 10490 10496 10502 10508 10514 10518 10522 10526 10531 10534 10538 10542 10545 10548 10552 10556 10562 10566 10570 10575 10578 10582 10586 10591 10597 10602 10606 10612 10617 10622 10626 10630 10634 10638 10642 10644 10646 10648 10650 10654 10659 10660 10661 10663 10667 10672 10675 10678 10684 10690 10692 10694 10695 10697 10700 10701 10702 10706 10710 10712 10714 10718 10720 10720 10721 10722 10725 10728 10730 10732 10735 10738 10739
10394 10399 10404 10408 10414 10420 10426 10432 10438 10444 10450 10457 10464 10469 10475 10480 10486 10494 10498 10503 10508 10513 10518 10524 10527 10531 10535 10538 10540 10546 10550 10555 10559 10564 10568 10572 10576 10580 10586 10591 10596 10600 10606 10610 10616 10620 10624 10628 10633 10635 10637 10640 10641 10644 10649 10652 10654 10656 10658 10661 10666 10668 10672 10680 10684 10686 10688 10690 10692 10694 10696 10696 10699 10704 10708 10709 10712 10714 10714 10715 10716 10720 10722 10724 10726 10728 10731 10732
10384 10388 10392 10397 10403 10408 10414 10420 10427 10434 10440 10448 10454 10459 10465 10470 10477 10483 10488 10494 10499 10504 10510 10516 10520 10524 10526 10529 10533 10539 10544 10548 10552 10558 10562 10566 10570 10576 10580 10585 10590 10594 10598 10604 10609 10614 10619 10624 10627 10630 10631 10633 10636 10640 10643 10646 10649 10650 10652 10656 10658 10661 10670 10676 10678 10680 10682 10683 10686 10688 10690 10691 10692 10696 10702 10704 10706 10708 10708 10710 10712 10714 10716 10718 10719 10722 10724 10726
10372 10376 10381 10387 10392 10398 10404 10410 10417 10424 10430 10438 10444 10449 10456 10460 10466 10472 10478 10485 10490 10496 10503 10508 10512 10515 10517 10522 10526 10532 10538 10541 10546 10552 10557 10561 10564 10569 10574 10578 10582 10586 10592 10597 10602 10608 10613 10618 10620 10622 10623 10626 10630 10634 10636 10640 10644 10645 10648 10650 10652 10658 10666 10669 10672 10674 10676 10677 10680 10682 10684 10686 10686 10688 10695 10700 10701 10702 10703 10704 10706 10708 10709 10710 10713 10716 10719 10720
10363 10367 10372 10377 10382 10388 10394 10400 10407 10414 10420 10428 10434 10440 10446 10450 10456 10462 10469 10476 10481 10488 10494 10499 10504 10506 10510 10515 10521 10527 10531 10536 10541 10547 10552 10555 10559 10564 10566 10570 10574 10579 10584 10589 10594 10600 10604 10609 10612 10612 10615 10620 10624 10627 10631 10635 10638 10640 10643 10644 10648 10654 10658 10662 10668 10669 10669 10672 10674 10676 10678 10680 10680 10682 10688 10694 10696 10696 10698 10700 10701 10702 10702 10704 10706 10710 10713 10714
10354 10358 10362 10368 10373 10379 10384 10391 10397 10404 10411 10418 10424 10430 10435 10440 10448 10454 10460 10466 10472 10479 10484 10490 10496 10498 10501 10508 10516 10520 10524 10530 10536 10542 10546 10548 10553 10556 10559 10562 10568 10572 10577 10582 10587 10592 10596 10602 10605 10606 10610 10615 10618 10622 10627 10630 10633 10636 10637 10638 10643 10647 10650 10658 10663 10662 10662 10666 10667 10671 10673 10673 10674 10675 10682 10688 10690 10690 10692 10694 10695 10696 10696 10697 10700 10704 10706 10708
10346 10350 10354 10358 10364 10370 10376 10382 10388 10395 10402 10408 10415 10420 10425 10432 10438 10444 10450 10456 10462 10469 10475 10482 10486 10488 10494 10504 10508 10512 10516 10522 10528 10533 10538 10542 10546 10549 10552 10556 10560 10565 10570 10574 10579 10584 10591 10597 10598 10601 10606 10608 10613 10618 10622 10626 10629 10631 10632 10634 10637 10640 10646 10652 10655 10654 10656 10659 10662 10666 10666 10667 10668 10670 10676 10681 10682 10684 10686 10688 10690 10690 10690 10690 10693 10697 10700 10701
10338 10342 10346 10351 10356 10362 10368 10374 10380 10387 10394 10400 10406 10410 10416 10422 10429 10436 10440 10446 10453 10460 10465 10472 10475 10480 10488 10495 10498 10502 10510 10515 10520 10526 10531 10534 10538 10542 10546 10550 10554 10560 10564 10568 10572 10580 10588 10590 10592 10596 10599 10602 10608 10613 10617 10620 10623 10626 10628 10628 10632 10635 10640 10645 10648 10648 10650 10655 10658 10660 10661 10662 10662 10663 10669 10674 10675 10677 10680 10682 10684 10684 10684 10684 10687 10690 10692 10694
10330 10334 10339 10344 10348 10354 10360 10366 10373 10379 10386 10392 10397 10402 10408 10414 10420 10426 10431 10436 10444 10450 10455 10461 10465 10470 10478 10485 10490 10496 10502 10506 10512 10519 10523 10526 10532 10535 10538 10544 10548 10554 10558 10561 10566 10574 10580 10581 10585 10589 10592 10596 10602 10606 10610 10612 10616 10621 10622 10622 10626 10630 10632 10638 10641 10642 10646 10652 10653 10654 10656 10657 10655 10656 10662 10666 10668 10670 10674 10676 10678 10678 10678 10678 10681 10684 10686 10688
10324 10328 10332 10337 10342 10347 10353 10360 10366 10372 10378 10384 10389 10395 10400 10406 10412 10418 10422 10430 10436 10440 10445 10451 10456 10462 10470 10477 10484 10490 10494 10496 10504 10511 10515 10520 10525 10528 10534 10539 10542 10546 10550 10554 10559 10567 10571 10574 10577 10580 10586 10591 10594 10598 10602 10605 10611 10616 10616 10616 10621 10624 10626 10632 10635 10638 10642 10646 10648 10650 10652 10650 10650 10652 10656 10660 10662 10665 10668 10670 10672 10672 10672 10673 10674 10678 10680 10682
10316 10321 10326 10330 10336 10341 10348 10354 10360 10366 10372 10377 10382 10388 10394 10400 10405 10410 10416 10423 10428 10431 10436 10442 10448 10454 10462 10470 10476 10480 10484 10490 10498 10504 10508 10514 10519 10522 10528 10532 10534 10539 10544 10546 10553 10562 10565 10567 10572 10577 10582 10586 10588 10593 10596 10601 10608 10610 10610 10613 10616 10619 10622 10626 10630 10632 10638 10641 10643 10647 10647 10646 10646 10646 10650 10654 10656 10660 10662 10664 10665 10665 10666 10667 10668 10671 10674 10676
10310 10315 10320 10324 10330 10336 10342 10348 10354 10360 10365 10370 10376 10381 10386 10392 10397 10404 10411 10414 10418 10422 10428 10434 10440 10447 10454 10462 10466 10470 10476 10484 10492 10496 10503 10510 10514 10518 10522 10526 10530 10535 10538 10541 10550 10558 10558 10563 10570 10575 10578 10580 10584 10589 10592 10597 10601 10603 10606 10609 10612 10614 10616 10620 10624 10628 10634 10636 10639 10642 10642 10640 10640 10640 10645 10648 10651 10654 10655 10657 10658 10658 10660 10662 10663 10665 10668 10670
10304 10310 10314 10319 10324 10330 10336 10342 10348 10354 10358 10364 10369 10374 10380 10385 10392 10400 10403 10404 10410 10416 10420 10427 10434 10439 10446 10452 10456 10461 10468 10478 10484 10490 10498 10502 10507 10512 10517 10522 10528 10532 10536 10540 10547 10552 10553 10560 10566 10569 10572 10576 10580 10584 10588 10590 10594 10596 10600 10604 10607 10610 10612 10616 10621 10626 10630 10630 10634 10637 10635 10634 10635 10636 10640 10643 10645 10648 10648 10650 10652 10653 10654 10656 10657 10658 10661 10664
10299 10304 10309 10314 10319 10324 10330 10336 10342 10347 10352 10358 10364 10368 10373 10380 10388 10392 10393 10396 10404 10410 10415 10422 10426 10430 10436 10442 10448 10454 10462 10470 10476 10483 10490 10494 10499 10504 10509 10515 10521 10526 10530 10534 10540 10544 10548 10555 10560 10563 10567 10571 10574 10579 10582 10585 10587 10590 10594 10598 10601 10604 10608 10614 10618 10622 10622 10624 10629 10630 10628 10630 10630 10632 10635 10637 10639 10642 10643 10644 10646 10647 10648 10649 10650 10652 10654 10657
10294 10299 10304 10310 10314 10320 10324 10330 10336 10341 10346 10352 10358 10362 10368 10376 10380 10382 10385 10391 10398 10404 10410 10414 10419 10424 10430 10435 10441 10448 10456 10464 10470 10476 10482 10487 10492 10498 10504 10510 10514 10518 10522 10526 10532 10538 10542 10550 10554 10558 10563 10566 10570 10573 10575 10576 10578 10581 10585 10590 10594 10598 10603 10608 10612 10614 10614 10618 10622 10622 10622 10624 10626 10628 10630 10631 10634 10636 10637 10638 10639 10641 10642 10643 10644 10646 10648 10650
10290 10294 10300 10305 10310 10314 10320 10325 10330 10336 10342 10347 10352 10356 10363 10368 10371 10374 10381 10386 10392 10399 10404 10408 10412 10418 10424 10429 10435 10442 10450 10458 10464 10470 10476 10482 10488 10494 10500 10504 10508 10513 10518 10522 10527 10532 10536 10541 10546 10550 10555 10559 10562 10564 10567 10568 10571 10576 10580 10584 10588 10592 10598 10602 10604 10606 10608 10612 10614 10614 10616 10619 10621 10624 10624 10625 10628 10630 10630 10632 10634 10635 10636 10636 10638 10639 10642 10644
10285 10290 10296 10300 10306 10310 10314 10320 10326 10330 10336 10341 10346 10352 10357 10360 10364 10370 10377 10381 10386 10393 10397 10402 10407 10412 10418 10424 10430 10438 10446 10452 10458 10464 10470 10477 10482 10488 10492 10498 10502 10508 10512 10516 10522 10526 10530 10535 10540 10544 10547 10550 10554 10557 10560 10562 10566 10572 10576 10581 10586 10590 10594 10596 10598 10600 10602 10604 10606 10609 10613 10615 10616 10618 10618 10620 10622 10623 10624 10626 10628 10629 10630 10630 10632 10633 10636 10638
10280 10286 10291 10296 10300 10304 10310 10316 10321 10326 10331 10336 10340 10345 10349 10353 10360 10366 10371 10376 10382 10387 10392 10398 10404 10409 10415 10420 10427 10434 10440 10446 10452 10459 10465 10470 10476 10482 10488 10492 10497 10501 10505 10510 10515 10518 10522 10528 10534 10536 10541 10545 10548 10551 10554 10558 10563 10567 10572 10577 10580 10582 10586 10588 10590 10595 10596 10598 10602 10607 10610 10612 10612 10612 10612 10614 10616 10617 10619 10620 10621 10622 10624 10624 10626 10628 10630 10633
10277 10282 10287 10292 10296 10300 10306 10312 10316 10322 10326 10330 10336 10340 10344 10350 10356 10361 10365 10370 10376 10382 10388 10394 10399 10404 10410 10416 10423 10430 10436 10442 10449 10456 10460 10466 10472 10478 10482 10488 10492 10495 10499 10504 10508 10512 10516 10522 10526 10530 10534 10539 10542 10546 10550 10555 10559 10563 10568 10572 10572 10575 10580 10581 10586 10591 10592 10594 10600 10603 10604 10606 10604 10606 10608 10608 10610 10612 10613 10614 10615 10616 10618 10620 10621 10622 10624 10627
10273 10277 10282 10286 10291 10296 10302 10307 10312 10317 10322 10327 10332 10336 10340 10346 10352 10355 10360 10365 10372 10378 10384 10389 10396 10401 10407 10413 10419 10425 10431 10438 10444 10450 10456 10462 10468 10472 10476 10482 10485 10490 10495 10499 10502 10506 10512 10516 10520 10524 10530 10533 10537 10542 10548 10551 10554 10558 10562 10565 10567 10571 10574 10577 10582 10586 10586 10590 10596 10596 10598 10599 10598 10600 10602 10601 10602 10606 10606 10608 10610 10612 10614 10615 10616 10617 10618 10621
10268 10272 10277 10282 10287 10292 10298 10302 10307 10312 10318 10323 10328 10331 10336 10342 10346 10350 10356 10360 10368 10374 10380 10386 10392 10397 10402 10408 10414 10420 10426 10432 10439 10446 10452 10457 10462 10466 10471 10476 10479 10484 10490 10494 10498 10502 10506 10512 10516 10520 10524 10528 10534 10540 10544 10546 10550 10554 10558 10560 10564 10568 10572 10574 10578 10580 10582 10586 10590 10590 10592 10593 10592 10594 10596 10594 10596 10599 10601 10602 10604 10606 10610 10610 10610 10612 10613 10616
10264 10268 10274 10278 10282 10288 10292 10296 10302 10306 10312 10318 10322 10326 10332 10338 10342 10347 10352 10357 10364 10370 10376 10382 10388 10392 10398 10405 10412 10417 10422 10428 10434 10440 10446 10452 10455 10460 10466 10470 10473 10478 10484 10488 10494 10497 10502 10508 10512 10516 10520 10526 10532 10536 10538 10540 10544 10549 10552 10555 10560 10562 10566 10570 10572 10575 10578 10582 10584 10586 10586 10586 10584 10588 10590 10590 10591 10593 10596 10597 10598 10602 10604 10605 10606 10607 10608 10610
10261 10265 10269 10274 10278 10283 10288 10292 10296 10302 10308 10312 10317 10322 10328 10334 10338 10343 10348 10353 10360 10366 10372 10378 10384 10389 10396 10402 10408 10414 10420 10426 10431 10436 10442 10446 10450 10454 10460 10463 10468 10474 10478 10483 10488 10492 10498 10504 10507 10512 10518 10523 10526 10530 10532 10535 10540 10543 10546 10550 10554 10556 10560 10563 10566 10570 10572 10576 10577 10578 10578 10578 10578 10582 10584 10585 10586 10588 10590 10591 10592 10596 10598 10599 10600 10602 10603 10604
10258 10262 10266 10270 10274 10279 10284 10288 10294 10299 10304 10309 10314 10319 10324 10329 10334 10338 10343 10350 10357 10363 10369 10376 10382 10387 10394 10399 10404 10409 10415 10421 10426 10430 10434 10439 10443 10448 10453 10457 10462 10468 10473 10478 10482 10488 10494 10498 10502 10508 10512 10516 10519 10523 10526 10530 10533 10538 10542 10546 10549 10552 10556 10558 10562 10564 10566 10569 10571 10570 10572 10573 10573 10576 10578 10580 10582 10583 10584 10586 10586 10589 10592 10594 10594 10596 10597 10598
10254 10258 10262 10266 10270 10274 10278 10283 10288 10294 10299 10304 10310 10315 10320 10324 10328 10333 10339 10347 10354 10361 10368 10374 10380 10386 10392 10396 10400 10405 10410 10416 10421 10426 10430 10436 10440 10444 10449 10454 10458 10464 10468 10473 10478 10484 10488 10492 10496 10502 10506 10510 10514 10520 10523 10526 10530 10534 10538 10541 10544 10548 10552 10554 10556 10558 10562 10566 10566 10566 10568 10568 10567 10570 10572 10574 10576 10578 10578 10580 10581 10583 10586 10588 10588 10589 10590 10592
10252 10254 10258 10262 10266 10269 10274 10278 10282 10288 10293 10299 10304 10310 10314 10319 10324 10330 10338 10346 10353 10360 10367 10373 10378 10384 10389 10394 10398 10402 10407 10412 10418 10422 10428 10432 10437 10441 10446 10450 10456 10460 10464 10468 10473 10478 10482 10486 10492 10498 10502 10506 10512 10516 10520 10523 10527 10530 10532 10536 10540 10544 10546 10550 10552 10554 10558 10560 10560 10560 10562 10562 10562 10565 10567 10569 10571 10572 10574 10575 10576 10578 10580 10582 10582 10582 10584 10586
10250 10252 10255 10258 10262 10266 10270 10275 10280 10284 10290 10295 10300 10306 10312 10317 10323 10330 10338 10346 10352 10358 10365 10372 10377 10382 10387 10392 10397 10402 10406 10410 10414 10418 10423 10428 10434 10438 10443 10448 10452 10456 10459 10464 10468 10473 10478 10483 10488 10492 10496 10500 10504 10508 10512 10514 10519 10523 10527 10532 10536 10538 10542 10544 10546 10548 10551 10554 10554 10556 10556 10556 10557 10560 10562 10563 10565 10566 10568 10570 10571 10572 10574 10576 10576 10577 10579 10580
10250 10252 10254 10258 10262 10265 10269 10274 10278 10284 10288 10294 10300 10306 10312 10318 10324 10330 10338 10345 10352 10358 10364 10370 10376 10381 10386 10390 10395 10400 10404 10408 10412 10416 10422 10426 10430 10434 10440 10444 10448 10452 10456 10460 10465 10470 10474 10480 10484 10488 10491 10494 10498 10500 10504 10507 10512 10516 10520 10525 10529 10532 10536 10538 10540 10542 10546 10548 10549 10549 10550 10550 10552 10554 10556 10558 10560 10561 10562 10564 10566 10567 10569 10570 10570 10572 10573 10575
10250 10253 10256 10258 10262 10266 10269 10273 10277 10282 10287 10292 10298 10304 10310 10316 10322 10330 10337 10344 10351 10358 10364 10370 10374 10378 10382 10387 10392 10398 10402 10406 10411 10416 10420 10425 10429 10433 10436 10440 10444 10448 10452 10457 10462 10466 10471 10476 10480 10484 10487 10490 10494 10498 10501 10505 10508 10512 10516 10519 10523 10526 10530 10532 10534 10536 10540 10542 10542 10542 10544 10546 10546 10549 10551 10552 10554 10556 10558 10558 10560 10562 10564 10565 10565 10566 10568 10570
10252 10254 10257 10260 10263 10266 10270 10273 10277 10282 10286 10292 10297 10303 10310 10316 10322 10329 10336 10344 10350 10356 10362 10368 10372 10377 10381 10386 10390 10395 10400 10404 10410 10414 10418 10423 10427 10430 10434 10437 10441 10446 10450 10454 10459 10463 10467 10472 10476 10480 10484 10487 10490 10494 10498 10502 10505 10508 10512 10515 10518 10521 10524 10526 10529 10531 10534 10536 10536 10536 10538 10540 10542 10544 10546 10546 10548 10550 10552 10554 10554 10556 10558 10560 10560 10560 10562 10564
10253 10256 10258 10262 10264 10268 10272 10276 10280 10284 10288 10294 10299 10304 10310 10316 10322 10328 10335 10342 10348 10354 10360 10366 10370 10376 10380 10384 10389 10392 10396 10400 10404 10409 10414 10420 10424 10428 10431 10434 10438 10443 10448 10452 10456 10460 10464 10468 10473 10476 10480 10483 10486 10490 10494 10497 10500 10504 10506 10510 10513 10516 10518 10520 10523 10525 10528 10530 10530 10531 10533 10536 10537 10538 10540 10542 10544 10544 10546 10548 10549 10551 10554 10554 10554 10554 10556 10558
10256 10258 10262 10266 10269 10272 10276 10280 10284 10288 10293 10298 10302 10308 10312 10317 10322 10328 10334 10340 10346 10352 10357 10362 10368 10372 10378 10382 10386 10390 10393 10398 10402 10406 10411 10416 10420 10424 10428 10432 10436 10440 10444 10448 10452 10456 10461 10465 10468 10472 10476 10480 10483 10486 10490 10492 10495 10498 10501 10504 10507 10510 10512 10516 10518 10520 10522 10524 10526 10528 10529 10530 10532 10534 10536 10537 10538 10539 10540 10542 10544 10546 10547 10548 10548 10549 10550 10551
10262 10263 10266 10270 10274 10277 10280 10284 10288 10292 10298 10303 10307 10312 10317 10322 10325 10329 10334 10339 10344 10350 10356 10360 10366 10370 10376 10380 10385 10390 10394 10398 10402 10407 10410 10414 10418 10422 10426 10429 10433 10437 10441 10444 10448 10452 10456 10460 10464 10467 10471 10474 10478 10482 10484 10486 10490 10493 10496 10500 10502 10505 10508 10510 10512 10515 10518 10520 10522 10524 10525 10526 10528 10530 10530 10531 10532 10534 10534 10536 10538 10540 10540 10541 10542 10542 10544 10544